GFSNW_sfc_vis_180.txt.gz
Visibility
4.9 5.0 3.8 4.6 6.0 5.8 6.3 6.7 0.0 4.7 8.4 0.0 0.0 0.2 15.0 15.0 15.0 15.0 15.0 15.0 15.0 15.0 15.0 15.0 15.0 15.0 15.0 15.0 15.0 15.0 15.0 15.0 1.7 15.0 15.0 15.0 0.3 0.0 0.2 0.1 0.4 2.2 2.0 0.4
4.9 3.9 3.9 3.6 5.7 6.1 6.0 0.0 0.0 5.4 9.4 0.1 0.1 4.1 15.0 15.0 15.0 15.0 15.0 15.0 15.0 15.0 15.0 15.0 15.0 15.0 15.0 15.0 15.0 15.0 15.0 6.2 7.5 15.0 15.0 14.8 15.0 15.0 15.0 4.9 1.3 0.3 0.0 0.9
4.2 4.1 3.4 3.6 4.4 5.9 10.7 0.1 0.0 0.0 0.2 15.0 15.0 15.0 15.0 15.0 15.0 15.0 15.0 15.0 15.0 2.7 3.4 15.0 15.0 15.0 15.0 15.0 15.0 15.0 15.0 15.0 15.0 8.2 15.0 15.0 15.0 15.0 15.0 10.7 1.4 12.7 7.0 13.2
4.5 4.2 3.9 3.6 4.1 4.2 5.0 0.3 0.2 7.5 0.0 0.1 15.0 15.0 15.0 15.0 7.4 15.0 15.0 15.0 14.0 15.0 15.0 15.0 15.0 15.0 15.0 15.0 15.0 15.0 13.9 13.6 15.0 15.0 15.0 15.0 15.0 15.0 15.0 15.0 15.0 0.4 12.5 13.6
4.1 3.8 4.8 3.4 4.0 6.1 2.2 0.4 0.4 15.0 15.0 15.0 15.0 15.0 15.0 15.0 15.0 15.0 15.0 15.0 15.0 15.0 15.0 15.0 15.0 15.0 15.0 15.0 15.0 15.0 15.0 11.9 15.0 15.0 15.0 15.0 15.0 15.0 15.0 15.0 15.0 15.0 15.0 15.0
6.1 5.4 6.2 6.9 3.4 8.0 0.1 1.5 15.0 15.0 6.9 0.8 11.4 8.8 15.0 15.0 15.0 15.0 15.0 15.0 15.0 7.2 15.0 15.0 15.0 15.0 0.1 12.4 15.0 15.0 0.2 10.2 3.5 15.0 15.0 15.0 15.0 15.0 15.0 15.0 15.0 15.0 15.0 15.0
14.5 7.4 6.5 6.3 4.1 6.1 2.2 8.5 15.0 15.0 0.1 13.2 11.5 15.0 15.0 15.0 15.0 15.0 15.0 15.0 15.0 15.0 15.0 15.0 15.0 15.0 15.0 12.1 15.0 15.0 15.0 15.0 15.0 8.5 15.0 0.6 15.0 15.0 15.0 15.0 15.0 15.0 15.0 15.0
15.0 15.0 11.1 7.4 5.5 3.9 9.4 15.0 14.8 3.0 0.1 15.0 12.3 15.0 15.0 15.0 15.0 15.0 15.0 15.0 15.0 15.0 15.0 15.0 15.0 15.0 15.0 15.0 15.0 15.0 15.0 15.0 15.0 5.8 10.1 14.7 15.0 2.4 0.2 0.1 0.8 0.1 0.1 12.1
13.3 15.0 15.0 15.0 7.9 4.4 10.5 6.0 14.2 15.0 7.2 0.5 15.0 15.0 15.0 15.0 14.5 14.1 15.0 15.0 15.0 15.0 15.0 15.0 15.0 15.0 15.0 15.0 15.0 15.0 15.0 15.0 14.3 0.8 0.6 15.0 15.0 15.0 15.0 15.0 0.1 15.0 5.6 15.0
14.7 13.9 15.0 15.0 14.5 3.7 8.4 6.4 15.0 15.0 0.2 15.0 15.0 15.0 15.0 15.0 15.0 15.0 15.0 15.0 15.0 15.0 15.0 15.0 15.0 15.0 15.0 15.0 15.0 15.0 1.2 1.1 0.9 13.8 0.5 14.2 15.0 15.0 15.0 0.1 0.7 10.1 15.0 15.0
15.0 14.4 10.3 12.0 13.4 9.1 8.9 6.6 12.2 15.0 15.0 15.0 15.0 15.0 15.0 15.0 13.1 15.0 15.0 14.0 15.0 15.0 15.0 15.0 12.9 14.5 15.0 12.4 15.0 15.0 15.0 11.8 3.1 1.4 0.8 3.3 15.0 15.0 15.0 14.4 15.0 13.6 15.0 15.0
15.0 15.0 11.3 8.7 15.0 15.0 15.0 13.4 15.0 15.0 15.0 15.0 15.0 15.0 15.0 15.0 15.0 15.0 15.0 15.0 15.0 15.0 15.0 1.5 11.8 13.3 0.4 14.7 12.5 15.0 15.0 15.0 15.0 15.0 15.0 15.0 15.0 15.0 15.0 15.0 15.0 15.0 15.0 15.0
15.0 15.0 14.9 12.1 15.0 15.0 15.0 4.9 15.0 15.0 15.0 15.0 15.0 15.0 15.0 15.0 15.0 15.0 15.0 15.0 15.0 15.0 15.0 15.0 9.1 15.0 13.7 2.7 10.9 15.0 15.0 15.0 15.0 15.0 15.0 15.0 15.0 15.0 15.0 15.0 15.0 15.0 15.0 15.0
15.0 15.0 14.6 11.4 15.0 10.2 15.0 15.0 15.0 15.0 15.0 15.0 15.0 15.0 15.0 15.0 15.0 15.0 15.0 15.0 15.0 15.0 15.0 13.8 11.5 15.0 15.0 15.0 15.0 15.0 15.0 15.0 15.0 15.0 15.0 15.0 15.0 15.0 15.0 15.0 15.0 15.0 15.0 15.0
15.0 15.0 15.0 13.6 11.8 5.5 15.0 15.0 15.0 15.0 15.0 14.0 15.0 15.0 15.0 15.0 15.0 15.0 15.0 15.0 15.0 15.0 15.0 14.9 12.3 15.0 15.0 15.0 15.0 15.0 15.0 15.0 15.0 15.0 15.0 15.0 15.0 15.0 15.0 15.0 15.0 15.0 15.0 15.0
15.0 13.8 12.6 15.0 8.1 4.0 15.0 0.0 4.4 15.0 15.0 15.0 15.0 15.0 15.0 15.0 15.0 15.0 15.0 15.0 15.0 15.0 15.0 14.9 15.0 15.0 15.0 7.4 10.7 15.0 15.0 12.1 14.0 15.0 15.0 15.0 15.0 15.0 15.0 15.0 15.0 15.0 15.0 15.0
13.6 13.5 10.9 13.2 3.1 7.9 8.0 15.0 15.0 15.0 15.0 15.0 15.0 15.0 15.0 15.0 15.0 15.0 15.0 15.0 11.6 15.0 13.0 2.9 15.0 15.0 14.1 2.0 15.0 15.0 15.0 15.0 7.3 15.0 6.0 10.6 15.0 15.0 15.0 15.0 15.0 15.0 15.0 15.0
2.8 5.2 7.8 4.7 12.1 5.0 7.4 15.0 15.0 15.0 15.0 15.0 1.3 15.0 15.0 15.0 15.0 15.0 15.0 13.1 8.2 14.5 15.0 8.3 4.5 15.0 13.6 0.2 15.0 15.0 15.0 7.5 7.7 15.0 15.0 15.0 15.0 15.0 15.0 15.0 15.0 15.0 7.1 14.1
4.9 4.4 7.0 1.2 1.4 0.1 0.1 15.0 15.0 15.0 15.0 10.9 15.0 14.7 15.0 15.0 1.0 15.0 4.7 13.1 0.3 15.0 1.2 8.2 7.6 1.8 0.6 15.0 15.0 15.0 15.0 0.0 1.1 15.0 15.0 15.0 15.0 15.0 15.0 15.0 15.0 3.8 11.2 15.0
11.8 7.0 0.1 0.0 0.1 15.0 14.4 0.1 0.0 15.0 15.0 15.0 14.5 15.0 15.0 11.2 0.7 0.4 6.7 11.8 3.1 0.7 15.0 9.7 0.2 14.2 15.0 7.8 0.1 15.0 11.1 0.0 12.0 15.0 15.0 15.0 15.0 15.0 15.0 0.2 0.0 0.0 15.0 15.0
0.1 0.0 0.0 0.3 10.9 12.4 0.3 0.0 3.9 1.9 2.1 13.2 15.0 15.0 15.0 15.0 15.0 15.0 11.5 8.8 7.9 1.4 15.0 6.9 14.7 2.3 0.1 8.9 1.7 15.0 15.0 15.0 15.0 14.7 10.4 0.1 0.1 0.3 0.0 0.0 9.1 15.0 13.0 0.2
10.7 0.2 8.6 0.7 0.1 7.6 0.1 0.4 0.6 14.1 14.9 8.5 9.4 10.9 15.0 15.0 15.0 15.0 4.1 5.9 1.1 3.0 13.7 0.3 6.0 6.6 0.0 15.0 0.1 0.0 3.2 6.6 1.5 0.0 0.0 0.0 0.0 0.3 9.5 15.0 14.6 11.4 1.2 0.2
15.0 15.0 0.2 2.1 0.3 4.6 13.2 1.9 14.6 2.8 15.0 14.8 11.1 1.5 15.0 15.0 15.0 12.2 2.5 0.7 2.6 6.3 1.4 6.0 1.1 0.1 0.1 0.1 0.0 0.0 0.0 0.0 0.0 0.0 10.6 1.6 2.5 5.2 7.5 2.4 3.6 13.4 0.4 0.5
15.0 15.0 0.1 13.6 0.3 10.8 15.0 15.0 15.0 15.0 15.0 15.0 15.0 0.3 14.4 6.1 13.6 15.0 0.8 8.1 7.7 0.2 0.1 3.3 2.6 0.6 2.4 4.3 4.4 5.4 0.2 0.6 0.8 0.7 0.7 0.7 1.7 1.3 3.2 1.3 2.5 3.0 0.2 4.6
1.5 15.0 9.2 0.6 15.0 11.8 7.4 10.7 15.0 15.0 15.0 15.0 14.2 12.7 15.0 14.6 0.2 3.4 9.1 0.3 2.6 6.8 14.1 6.3 2.4 12.6 15.0 9.7 2.7 2.3 2.3 1.6 2.1 8.5 13.9 14.9 15.0 7.3 0.7 0.5 0.6 1.6 0.5 8.7
15.0 15.0 15.0 11.1 14.5 9.9 0.2 0.2 8.9 15.0 13.3 15.0 15.0 9.8 15.0 10.0 13.1 6.0 5.0 1.2 15.0 15.0 14.8 15.0 15.0 15.0 15.0 14.8 14.9 15.0 15.0 15.0 15.0 15.0 15.0 15.0 14.5 5.6 1.1 2.9 5.1 4.1 6.7 3.4
15.0 14.7 15.0 14.8 12.8 15.0 10.1 5.9 15.0 15.0 15.0 9.2 15.0 12.9 1.4 14.4 6.4 10.9 15.0 15.0 15.0 2.3 0.1 15.0 15.0 15.0 15.0 15.0 15.0 15.0 15.0 15.0 15.0 15.0 15.0 15.0 5.8 12.0 9.9 11.9 14.4 15.0 15.0 14.3

GFSNW_sfc_vis_186.txt.gz
Visibility
15.0 3.5 15.0 15.0 10.2 10.9 6.2 3.6 0.3 0.1 2.2 0.1 0.0 0.1 0.0 0.1 0.1 7.0 0.1 13.5 13.1 9.6 13.1 15.0 15.0 14.7 15.0 15.0 15.0 15.0 15.0 15.0 15.0 15.0 15.0 15.0 15.0 15.0 9.2 10.3 15.0 8.9 14.3 15.0
1.3 7.7 15.0 15.0 13.0 13.1 9.7 0.1 0.0 0.2 2.4 0.1 0.1 0.0 0.0 0.0 0.0 0.0 0.0 0.0 2.8 9.0 1.9 0.2 8.8 15.0 15.0 15.0 15.0 15.0 15.0 15.0 15.0 14.8 11.9 14.0 6.9 15.0 8.5 15.0 3.0 15.0 15.0 15.0
1.6 2.0 11.2 9.8 5.7 6.8 15.0 0.1 0.1 0.0 0.0 0.1 1.1 0.1 0.0 0.0 2.6 0.1 0.6 0.0 6.9 4.8 0.2 13.0 10.2 15.0 15.0 15.0 15.0 15.0 15.0 15.0 15.0 15.0 15.0 15.0 15.0 15.0 5.6 15.0 15.0 15.0 15.0 15.0
2.2 1.9 2.6 3.6 5.1 6.0 5.5 0.1 0.1 1.8 0.1 0.0 5.7 15.0 0.1 0.0 0.0 0.0 5.5 0.4 8.6 7.1 0.1 13.2 5.7 15.0 15.0 15.0 15.0 15.0 15.0 15.0 15.0 15.0 15.0 15.0 15.0 15.0 15.0 14.6 15.0 7.2 15.0 15.0
5.0 2.4 2.2 3.3 4.6 7.8 0.8 0.0 0.1 3.0 5.0 0.1 0.1 9.2 0.0 0.8 0.8 0.2 0.2 4.4 10.0 15.0 15.0 15.0 15.0 15.0 15.0 15.0 14.9 15.0 15.0 15.0 15.0 15.0 15.0 15.0 15.0 15.0 15.0 15.0 15.0 15.0 15.0 15.0
3.2 2.2 3.3 3.2 3.5 5.1 0.1 0.6 4.2 4.7 0.0 0.0 0.9 0.2 0.0 1.0 9.1 1.6 13.4 14.2 15.0 15.0 15.0 15.0 15.0 15.0 15.0 15.0 15.0 15.0 9.8 15.0 10.7 15.0 15.0 15.0 15.0 15.0 15.0 15.0 15.0 15.0 15.0 15.0
3.4 3.4 3.4 5.7 6.8 6.3 3.3 0.9 7.4 5.8 0.0 0.2 0.2 8.1 14.5 1.5 8.2 3.9 12.6 15.0 15.0 15.0 15.0 15.0 15.0 15.0 15.0 15.0 15.0 15.0 7.7 9.3 3.9 7.9 13.9 1.0 15.0 15.0 15.0 15.0 15.0 15.0 15.0 15.0
4.9 4.1 3.6 5.1 10.5 11.5 10.0 8.2 7.7 8.1 0.0 0.6 0.2 1.8 0.1 8.7 15.0 15.0 15.0 15.0 15.0 15.0 15.0 15.0 15.0 15.0 15.0 14.4 9.7 13.1 14.4 3.8 2.9 3.7 9.8 15.0 15.0 15.0 15.0 15.0 15.0 15.0 15.0 15.0
8.6 7.0 5.8 7.9 15.0 15.0 14.9 7.5 12.5 11.1 6.2 0.2 12.2 1.2 15.0 5.3 13.1 15.0 12.9 15.0 15.0 15.0 15.0 15.0 15.0 15.0 15.0 15.0 15.0 5.2 15.0 7.2 6.4 8.1 15.0 15.0 15.0 15.0 15.0 15.0 15.0 15.0 15.0 15.0
15.0 9.5 8.1 14.9 14.4 15.0 15.0 15.0 15.0 15.0 6.0 1.1 11.5 9.1 7.2 15.0 15.0 15.0 5.1 5.6 14.2 15.0 15.0 15.0 15.0 15.0 15.0 15.0 15.0 15.0 9.5 3.4 6.4 15.0 15.0 15.0 15.0 15.0 15.0 15.0 15.0 15.0 15.0 15.0
15.0 15.0 15.0 13.6 15.0 15.0 15.0 9.5 15.0 15.0 14.2 7.0 13.7 15.0 15.0 15.0 15.0 15.0 3.9 8.1 6.1 14.2 15.0 15.0 15.0 15.0 15.0 15.0 15.0 15.0 15.0 15.0 15.0 15.0 8.2 7.4 15.0 15.0 15.0 15.0 15.0 15.0 15.0 15.0
15.0 15.0 15.0 15.0 15.0 15.0 13.8 0.1 15.0 15.0 15.0 0.1 15.0 15.0 15.0 15.0 15.0 15.0 15.0 15.0 15.0 15.0 15.0 15.0 15.0 15.0 15.0 15.0 15.0 15.0 15.0 15.0 15.0 15.0 15.0 15.0 15.0 15.0 15.0 15.0 15.0 15.0 15.0 15.0
15.0 14.9 15.0 15.0 15.0 15.0 15.0 15.0 15.0 15.0 15.0 2.7 15.0 15.0 15.0 15.0 15.0 15.0 15.0 15.0 15.0 15.0 15.0 15.0 15.0 15.0 15.0 15.0 15.0 15.0 15.0 15.0 15.0 15.0 15.0 15.0 15.0 15.0 15.0 15.0 15.0 15.0 15.0 15.0
15.0 14.4 14.3 15.0 15.0 15.0 15.0 15.0 15.0 15.0 15.0 3.7 11.7 15.0 15.0 15.0 15.0 15.0 15.0 15.0 15.0 15.0 15.0 15.0 15.0 15.0 15.0 15.0 15.0 15.0 15.0 15.0 15.0 15.0 15.0 15.0 15.0 15.0 15.0 15.0 15.0 15.0 15.0 15.0
14.1 14.4 15.0 15.0 15.0 15.0 15.0 15.0 15.0 15.0 15.0 15.0 15.0 15.0 15.0 15.0 15.0 15.0 15.0 15.0 15.0 15.0 15.0 15.0 15.0 15.0 15.0 15.0 15.0 15.0 15.0 15.0 15.0 15.0 15.0 15.0 15.0 15.0 15.0 15.0 15.0 15.0 15.0 15.0
15.0 15.0 13.7 14.9 15.0 15.0 15.0 0.0 6.6 15.0 15.0 15.0 10.0 15.0 15.0 15.0 15.0 15.0 15.0 15.0 15.0 15.0 15.0 15.0 11.3 15.0 15.0 15.0 15.0 15.0 15.0 15.0 15.0 15.0 15.0 15.0 15.0 15.0 15.0 15.0 15.0 15.0 15.0 15.0
13.7 12.0 9.4 15.0 15.0 10.3 5.1 5.5 15.0 15.0 15.0 15.0 15.0 2.7 15.0 8.5 0.1 0.1 14.1 15.0 15.0 15.0 4.7 15.0 15.0 15.0 14.6 11.3 15.0 15.0 15.0 15.0 15.0 15.0 15.0 14.0 15.0 15.0 15.0 15.0 15.0 15.0 15.0 15.0
12.1 10.5 15.0 15.0 15.0 15.0 13.5 15.0 15.0 15.0 15.0 15.0 15.0 1.6 1.6 15.0 1.4 0.1 10.4 3.3 3.6 14.4 15.0 15.0 15.0 15.0 14.6 14.3 15.0 15.0 15.0 15.0 15.0 14.1 15.0 11.0 11.0 15.0 15.0 14.5 15.0 15.0 15.0 15.0
11.9 14.7 15.0 3.7 1.8 0.0 0.7 15.0 15.0 15.0 15.0 15.0 15.0 9.6 0.5 14.6 12.5 5.0 7.7 1.8 2.2 10.8 14.8 9.5 12.4 15.0 7.9 15.0 15.0 15.0 12.9 12.7 2.6 13.2 15.0 15.0 14.7 14.2 15.0 15.0 15.0 15.0 13.6 3.2
15.0 14.7 0.0 0.0 5.0 15.0 15.0 14.4 0.1 14.8 15.0 15.0 15.0 15.0 1.1 3.3 3.9 0.4 14.8 2.9 7.0 2.9 8.2 3.7 4.0 14.8 15.0 15.0 15.0 12.8 14.7 14.5 14.8 10.0 12.2 10.1 14.9 3.5 7.1 14.5 14.5 0.2 0.3 0.2
13.8 0.0 0.0 0.2 15.0 13.8 8.9 5.1 15.0 15.0 15.0 15.0 15.0 12.5 6.8 15.0 3.7 5.2 15.0 10.1 6.8 7.7 5.2 5.7 5.5 14.7 11.9 12.2 15.0 0.2 0.5 5.2 0.3 0.1 0.2 2.9 0.7 15.0 10.5 0.6 0.0 0.0 0.2 0.1
15.0 8.6 7.0 15.0 12.3 14.4 14.3 14.8 10.0 15.0 8.3 15.0 15.0 15.0 9.1 13.3 15.0 3.7 15.0 14.4 12.1 5.9 4.2 2.0 5.6 4.6 15.0 13.9 15.0 15.0 13.3 0.4 0.1 0.2 0.1 10.0 0.2 2.4 0.0 0.1 15.0 7.5 0.1 0.1
15.0 15.0 13.8 12.7 6.9 15.0 15.0 9.3 11.8 5.8 15.0 15.0 15.0 15.0 10.3 15.0 15.0 13.3 15.0 10.3 4.2 10.0 1.6 3.5 6.3 12.2 15.0 15.0 1.9 14.7 12.2 0.2 0.1 0.1 0.0 0.0 0.1 1.4 13.6 0.9 0.5 0.7 2.8 1.5
15.0 15.0 2.7 15.0 15.0 15.0 15.0 15.0 15.0 15.0 15.0 15.0 15.0 15.0 15.0 15.0 13.0 15.0 6.5 6.9 7.6 1.5 1.7 1.7 0.8 15.0 15.0 15.0 14.7 15.0 15.0 15.0 15.0 15.0 8.8 1.3 3.5 2.3 4.0 9.5 0.2 8.1 5.3 2.2
15.0 15.0 14.2 15.0 15.0 15.0 15.0 15.0 15.0 15.0 15.0 14.9 8.3 15.0 15.0 15.0 1.7 14.9 8.4 3.0 3.3 3.0 1.0 4.3 12.3 15.0 15.0 13.4 15.0 15.0 15.0 9.4 6.7 15.0 9.3 5.0 4.1 5.9 5.5 10.0 8.5 15.0 15.0 12.2
15.0 15.0 15.0 15.0 15.0 15.0 5.3 15.0 15.0 15.0 15.0 15.0 13.8 15.0 15.0 11.2 14.5 15.0 12.9 15.0 10.4 6.0 12.1 15.0 15.0 15.0 15.0 14.9 15.0 15.0 15.0 15.0 13.7 15.0 15.0 12.3 5.9 5.8 4.8 14.8 15.0 15.0 15.0 15.0
15.0 15.0 1.3 15.0 15.0 14.4 14.2 15.0 15.0 15.0 15.0 15.0 14.2 11.7 15.0 14.9 3.7 15.0 15.0 15.0 4.9 5.9 15.0 15.0 15.0 15.0 14.9 15.0 15.0 0.3 4.6 15.0 15.0 15.0 15.0 15.0 15.0 12.9 6.2 8.6 14.8 15.0 15.0 15.0

GFSNW_sfc_vis_192.txt.gz
Visibility
14.9 15.0 15.0 14.9 15.0 15.0 3.8 0.1 0.0 8.5 14.5 0.0 0.2 0.1 0.2 5.5 14.9 15.0 14.7 15.0 15.0 15.0 15.0 15.0 15.0 15.0 15.0 15.0 15.0 15.0 15.0 15.0 15.0 15.0 15.0 15.0 15.0 15.0 9.9 10.4 1.9 0.1 1.9 15.0
13.9 14.3 9.7 15.0 8.0 14.5 4.9 0.0 0.1 15.0 13.9 0.0 0.0 0.1 0.0 0.1 1.4 0.5 1.0 5.3 15.0 15.0 15.0 14.5 15.0 15.0 15.0 15.0 15.0 15.0 15.0 14.1 0.0 0.0 4.1 15.0 15.0 15.0 15.0 7.3 0.1 15.0 15.0 15.0
5.0 5.0 10.3 11.0 10.8 7.4 6.2 0.1 0.0 0.0 0.0 3.3 0.1 0.0 0.0 0.0 4.9 14.9 15.0 9.5 15.0 15.0 8.9 5.7 11.9 15.0 15.0 15.0 15.0 15.0 15.0 15.0 15.0 9.8 11.2 15.0 15.0 15.0 15.0 5.1 6.8 15.0 15.0 15.0
3.8 6.8 9.6 15.0 15.0 10.2 2.2 0.1 0.0 6.8 0.0 0.0 0.1 5.5 10.8 0.0 0.0 0.0 15.0 3.9 15.0 11.6 0.0 0.0 0.2 15.0 15.0 15.0 15.0 15.0 15.0 9.1 3.1 0.4 10.1 15.0 15.0 15.0 15.0 15.0 15.0 15.0 15.0 15.0
6.4 7.4 14.2 14.9 15.0 14.8 0.1 0.1 0.0 2.8 15.0 0.1 0.1 0.1 0.0 11.4 0.0 0.0 0.0 0.2 9.0 15.0 15.0 14.5 0.0 0.1 12.0 0.2 15.0 15.0 15.0 0.1 0.1 0.1 15.0 15.0 7.6 15.0 15.0 15.0 15.0 15.0 15.0 15.0
14.7 6.8 4.9 8.0 15.0 15.0 1.5 9.0 15.0 15.0 13.6 12.3 0.0 0.0 0.0 15.0 9.5 0.1 14.0 15.0 5.3 0.1 2.1 14.6 14.0 12.9 12.4 5.6 7.0 0.0 0.8 0.2 0.2 0.2 6.3 4.7 11.5 15.0 15.0 15.0 15.0 15.0 15.0 15.0
10.3 4.0 2.9 4.0 10.7 15.0 15.0 15.0 15.0 13.2 0.1 12.1 0.2 8.5 15.0 15.0 15.0 0.0 15.0 15.0 3.8 0.1 4.7 3.9 2.6 3.0 2.9 4.4 1.7 6.2 4.2 2.0 4.6 3.9 6.4 4.5 14.8 15.0 15.0 15.0 15.0 15.0 15.0 15.0
5.8 3.7 3.2 2.7 2.9 11.1 15.0 15.0 15.0 15.0 0.0 15.0 3.5 15.0 12.6 11.9 1.5 0.0 0.0 1.5 9.7 4.5 9.6 0.2 0.1 0.1 0.1 0.0 5.9 12.6 15.0 11.7 8.6 13.4 15.0 15.0 15.0 15.0 15.0 15.0 15.0 15.0 15.0 15.0
5.2 4.3 3.1 2.9 2.9 3.6 15.0 15.0 15.0 15.0 0.0 0.2 0.8 0.1 1.6 0.0 0.0 0.0 0.0 2.3 3.8 5.1 3.4 0.5 0.3 0.2 0.7 0.1 0.8 15.0 15.0 15.0 15.0 15.0 15.0 15.0 15.0 15.0 15.0 15.0 15.0 15.0 15.0 15.0
4.5 4.3 4.3 3.4 3.2 2.9 5.1 8.3 15.0 15.0 0.0 5.3 15.0 8.0 0.1 7.2 0.8 0.1 0.0 0.0 0.1 6.5 0.3 0.1 0.2 0.6 3.2 2.2 3.5 10.5 14.6 12.2 12.3 15.0 15.0 15.0 15.0 15.0 15.0 15.0 15.0 15.0 15.0 15.0
10.9 5.1 5.0 5.3 5.4 5.1 3.2 2.0 9.1 15.0 0.4 0.1 13.7 15.0 8.3 2.8 8.9 0.6 0.1 0.2 3.5 2.7 0.5 1.1 3.2 5.9 6.6 15.0 15.0 15.0 12.7 10.8 7.6 15.0 15.0 15.0 15.0 15.0 15.0 15.0 15.0 15.0 15.0 15.0
15.0 14.7 7.0 5.6 6.6 7.1 13.9 4.4 5.5 7.8 0.9 0.1 4.2 4.4 9.1 15.0 15.0 15.0 11.4 13.7 14.5 13.5 14.9 12.3 15.0 14.9 7.5 14.7 14.9 15.0 15.0 15.0 15.0 15.0 15.0 15.0 15.0 15.0 15.0 15.0 15.0 15.0 15.0 15.0
15.0 15.0 15.0 12.4 12.9 8.6 15.0 10.4 9.2 15.0 2.5 0.1 0.1 3.0 9.6 15.0 15.0 15.0 14.9 15.0 15.0 15.0 15.0 15.0 15.0 15.0 15.0 15.0 15.0 15.0 15.0 15.0 15.0 15.0 15.0 15.0 15.0 15.0 15.0 15.0 15.0 15.0 15.0 15.0
15.0 15.0 15.0 15.0 15.0 15.0 15.0 14.3 12.7 15.0 15.0 0.0 0.0 15.0 15.0 15.0 15.0 15.0 15.0 15.0 15.0 15.0 15.0 15.0 15.0 15.0 15.0 15.0 15.0 15.0 15.0 15.0 15.0 15.0 15.0 15.0 15.0 15.0 15.0 15.0 15.0 15.0 15.0 15.0
15.0 15.0 15.0 15.0 15.0 15.0 15.0 15.0 15.0 15.0 15.0 0.1 0.0 15.0 15.0 15.0 15.0 15.0 15.0 15.0 15.0 15.0 15.0 15.0 15.0 15.0 15.0 15.0 15.0 15.0 15.0 15.0 15.0 15.0 15.0 15.0 15.0 15.0 15.0 15.0 15.0 15.0 15.0 15.0
15.0 15.0 15.0 15.0 15.0 15.0 15.0 0.6 6.5 15.0 15.0 15.0 0.2 10.6 15.0 15.0 15.0 15.0 15.0 15.0 15.0 15.0 15.0 15.0 15.0 15.0 15.0 15.0 15.0 15.0 15.0 15.0 15.0 15.0 15.0 15.0 15.0 15.0 15.0 15.0 15.0 15.0 15.0 15.0
15.0 15.0 15.0 15.0 15.0 15.0 5.2 15.0 10.7 15.0 15.0 15.0 13.0 0.3 7.6 15.0 15.0 15.0 15.0 11.0 15.0 14.7 15.0 15.0 15.0 15.0 15.0 15.0 15.0 15.0 15.0 15.0 15.0 15.0 15.0 15.0 15.0 15.0 15.0 15.0 15.0 15.0 15.0 15.0
15.0 15.0 15.0 15.0 15.0 15.0 15.0 15.0 15.0 15.0 15.0 15.0 14.5 0.1 15.0 15.0 12.6 15.0 15.0 15.0 15.0 12.2 15.0 15.0 15.0 15.0 15.0 15.0 15.0 15.0 15.0 15.0 15.0 15.0 15.0 15.0 15.0 15.0 15.0 15.0 15.0 15.0 15.0 15.0
15.0 15.0 15.0 15.0 15.0 15.0 15.0 15.0 15.0 15.0 15.0 15.0 15.0 12.8 2.7 15.0 10.8 15.0 15.0 15.0 14.9 15.0 15.0 15.0 15.0 15.0 14.9 15.0 15.0 15.0 15.0 15.0 15.0 15.0 15.0 15.0 15.0 15.0 15.0 15.0 15.0 14.0 5.9 15.0
15.0 15.0 3.8 0.3 5.2 15.0 15.0 14.4 8.9 14.8 15.0 15.0 14.8 15.0 15.0 14.9 15.0 13.2 14.2 15.0 12.4 15.0 15.0 15.0 15.0 15.0 15.0 15.0 15.0 15.0 15.0 15.0 15.0 15.0 15.0 15.0 15.0 15.0 15.0 15.0 14.7 13.0 15.0 15.0
15.0 15.0 0.0 15.0 15.0 15.0 15.0 0.0 15.0 15.0 15.0 15.0 10.5 12.4 15.0 15.0 15.0 14.9 12.2 9.5 3.9 3.3 4.8 15.0 15.0 15.0 15.0 15.0 15.0 15.0 15.0 15.0 15.0 15.0 14.5 15.0 15.0 15.0 13.2 15.0 15.0 12.1 0.1 0.0
15.0 15.0 15.0 15.0 15.0 15.0 15.0 15.0 15.0 15.0 9.5 15.0 12.0 12.5 15.0 9.3 8.2 2.1 7.3 1.1 10.1 4.7 15.0 15.0 15.0 5.3 11.7 15.0 15.0 15.0 15.0 15.0 15.0 15.0 15.0 15.0 15.0 15.0 15.0 14.0 15.0 15.0 0.1 0.0
8.7 15.0 15.0 15.0 15.0 15.0 13.2 15.0 14.4 7.5 15.0 8.5 15.0 10.5 9.7 9.0 15.0 15.0 4.2 15.0 14.2 14.9 14.7 15.0 15.0 15.0 15.0 15.0 15.0 15.0 15.0 15.0 15.0 15.0 15.0 15.0 15.0 15.0 15.0 15.0 0.2 0.1 2.6 0.2
10.0 13.0 15.0 14.7 5.3 0.8 2.5 1.3 2.4 8.0 15.0 14.2 14.3 15.0 15.0 8.6 15.0 15.0 15.0 13.3 15.0 15.0 15.0 15.0 14.7 15.0 15.0 15.0 15.0 15.0 15.0 15.0 15.0 15.0 15.0 15.0 13.4 15.0 0.5 0.1 0.1 5.6 14.6 3.9
10.8 15.0 11.7 4.7 14.0 15.0 14.9 11.8 10.7 13.6 15.0 14.4 15.0 14.4 15.0 14.5 15.0 14.8 15.0 15.0 14.9 15.0 14.1 8.3 0.8 15.0 15.0 15.0 15.0 15.0 15.0 0.1 13.7 15.0 14.1 3.2 2.7 15.0 15.0 15.0 15.0 15.0 15.0 15.0
12.0 9.9 15.0 15.0 11.3 13.6 15.0 12.4 13.0 15.0 12.7 9.6 11.2 14.2 14.5 15.0 15.0 15.0 15.0 15.0 15.0 7.1 8.4 15.0 12.6 15.0 15.0 15.0 15.0 15.0 15.0 15.0 15.0 15.0 15.0 15.0 6.1 15.0 15.0 15.0 15.0 15.0 15.0 15.0
15.0 0.9 12.0 12.7 12.8 0.8 1.2 15.0 15.0 15.0 15.0 9.5 8.5 15.0 15.0 15.0 15.0 15.0 15.0 15.0 6.1 15.0 15.0 15.0 15.0 15.0 15.0 15.0 15.0 0.3 15.0 15.0 15.0 15.0 15.0 15.0 15.0 15.0 15.0 15.0 15.0 15.0 15.0 15.0

GFSNW_sfc_vis_198.txt.gz
Visibility
15.0 15.0 14.8 10.0 10.9 10.4 10.9 0.1 0.0 15.0 15.0 0.0 0.0 0.1 0.0 14.4 6.1 15.0 15.0 15.0 10.9 15.0 15.0 15.0 15.0 15.0 15.0 15.0 15.0 15.0 15.0 15.0 15.0 15.0 15.0 15.0 15.0 15.0 15.0 15.0 15.0 15.0 15.0 15.0
13.2 15.0 12.3 9.5 8.7 8.9 4.5 0.0 0.3 15.0 8.2 0.1 0.2 0.1 0.0 1.2 15.0 15.0 15.0 15.0 15.0 15.0 14.3 15.0 15.0 15.0 15.0 15.0 15.0 15.0 15.0 15.0 15.0 13.1 15.0 15.0 15.0 15.0 15.0 15.0 15.0 15.0 15.0 15.0
13.3 10.0 8.4 9.6 11.8 11.6 0.9 0.0 0.0 0.5 15.0 13.7 1.5 12.8 7.3 0.0 12.1 15.0 15.0 15.0 15.0 15.0 9.7 14.6 15.0 15.0 15.0 15.0 15.0 15.0 15.0 15.0 15.0 15.0 15.0 15.0 15.0 15.0 15.0 15.0 15.0 15.0 15.0 15.0
14.0 10.9 11.8 15.0 12.1 7.0 0.3 0.0 0.0 11.5 0.3 7.3 13.3 2.9 0.6 0.0 0.0 12.8 15.0 15.0 15.0 15.0 0.3 0.2 14.0 15.0 15.0 15.0 15.0 15.0 15.0 14.6 15.0 15.0 15.0 15.0 15.0 15.0 15.0 15.0 15.0 15.0 15.0 15.0
14.8 15.0 15.0 14.7 13.2 4.1 0.1 0.0 0.1 8.0 15.0 15.0 14.8 14.9 0.1 0.1 0.1 1.7 1.4 15.0 15.0 15.0 15.0 15.0 1.1 15.0 15.0 15.0 15.0 15.0 15.0 14.8 15.0 0.1 0.1 9.7 15.0 15.0 15.0 15.0 15.0 15.0 15.0 15.0
14.8 15.0 13.3 12.5 4.7 2.8 0.0 0.2 8.3 14.6 5.5 12.8 4.1 11.9 4.4 4.1 15.0 0.5 15.0 15.0 15.0 15.0 15.0 15.0 15.0 15.0 13.8 15.0 15.0 15.0 15.0 4.8 0.7 0.1 0.0 0.5 0.1 15.0 15.0 15.0 15.0 15.0 15.0 15.0
11.9 15.0 11.3 5.2 5.0 3.0 2.5 1.3 15.0 0.0 0.1 4.8 0.8 15.0 15.0 0.1 10.2 9.4 13.8 15.0 15.0 15.0 15.0 15.0 15.0 7.2 2.2 4.4 4.9 11.2 7.2 1.8 0.1 0.1 0.1 0.1 12.8 15.0 15.0 15.0 15.0 15.0 15.0 15.0
15.0 12.3 8.3 6.9 6.6 5.4 0.3 3.9 15.0 9.5 0.1 0.5 15.0 15.0 15.0 15.0 15.0 15.0 15.0 15.0 15.0 15.0 15.0 0.1 0.1 0.1 0.1 0.0 0.0 0.4 3.0 0.3 0.1 0.1 0.2 14.0 15.0 15.0 15.0 15.0 15.0 15.0 15.0 15.0
11.7 13.6 8.9 7.1 5.3 5.9 6.1 5.4 11.7 14.7 13.8 1.4 14.8 15.0 15.0 15.0 6.8 0.0 1.1 13.7 15.0 14.5 5.2 0.2 0.1 0.1 0.1 0.0 0.0 0.0 0.0 0.0 0.1 0.1 0.1 0.3 15.0 15.0 15.0 15.0 13.8 15.0 15.0 15.0
15.0 12.4 6.0 4.9 5.8 7.5 1.6 3.8 14.9 14.1 14.2 15.0 12.6 15.0 13.1 15.0 15.0 0.0 0.1 0.0 0.1 8.7 0.2 0.1 0.1 0.1 1.7 0.2 0.1 0.0 0.1 0.1 0.1 0.1 0.1 0.9 15.0 15.0 15.0 15.0 14.4 15.0 15.0 15.0
14.3 8.1 5.6 5.2 6.5 7.7 1.8 10.1 10.2 5.7 10.4 10.7 15.0 15.0 15.0 15.0 15.0 0.0 0.0 0.1 0.0 0.0 0.1 0.1 0.1 0.1 0.2 8.7 14.5 14.4 9.8 1.0 0.1 0.1 0.1 0.3 15.0 15.0 15.0 15.0 15.0 15.0 15.0 15.0
9.3 7.6 7.8 5.3 5.6 10.2 6.0 1.3 3.2 5.1 0.8 0.6 14.3 15.0 15.0 15.0 15.0 15.0 0.2 14.0 0.1 1.0 0.1 0.1 0.2 0.1 0.2 14.6 0.5 15.0 15.0 15.0 7.7 13.1 13.7 15.0 15.0 15.0 15.0 15.0 15.0 15.0 15.0 15.0
15.0 7.3 6.8 9.2 4.9 6.6 6.0 5.4 2.8 8.7 0.3 1.9 0.2 5.7 14.0 15.0 15.0 15.0 14.1 5.0 15.0 15.0 15.0 15.0 15.0 1.8 15.0 15.0 14.3 15.0 15.0 15.0 15.0 14.9 13.9 15.0 15.0 15.0 15.0 15.0 15.0 15.0 15.0 15.0
15.0 11.8 7.1 11.3 9.1 4.1 4.5 7.7 14.4 15.0 6.7 0.1 0.0 15.0 13.0 15.0 8.2 4.0 6.2 15.0 15.0 15.0 15.0 15.0 0.9 0.8 14.5 3.6 9.9 15.0 9.1 12.1 15.0 10.7 15.0 15.0 15.0 15.0 15.0 15.0 15.0 15.0 15.0 15.0
15.0 15.0 15.0 12.6 15.0 10.9 5.2 4.1 10.1 15.0 15.0 0.1 0.0 3.8 1.4 15.0 15.0 15.0 13.9 14.5 15.0 13.3 15.0 15.0 15.0 15.0 13.0 6.9 2.7 0.1 11.7 8.9 13.1 11.5 15.0 15.0 15.0 15.0 15.0 15.0 15.0 15.0 15.0 15.0
15.0 15.0 15.0 15.0 13.7 15.0 12.5 5.1 8.3 15.0 15.0 11.6 0.0 0.0 0.1 6.2 8.1 6.4 11.0 5.4 6.0 13.5 15.0 15.0 15.0 15.0 13.6 14.8 14.9 14.8 15.0 15.0 15.0 15.0 15.0 15.0 15.0 15.0 15.0 15.0 15.0 15.0 15.0 15.0
15.0 15.0 15.0 15.0 15.0 15.0 5.4 0.6 8.0 15.0 15.0 2.4 0.1 0.0 0.0 3.0 4.2 5.1 6.1 7.6 7.0 14.8 15.0 15.0 15.0 15.0 15.0 15.0 15.0 15.0 15.0 15.0 15.0 15.0 15.0 15.0 15.0 15.0 15.0 15.0 15.0 15.0 15.0 15.0
15.0 15.0 15.0 15.0 15.0 15.0 15.0 15.0 15.0 15.0 15.0 15.0 0.9 0.0 0.1 7.7 0.1 0.0 13.7 15.0 15.0 15.0 15.0 15.0 15.0 15.0 15.0 11.6 15.0 15.0 15.0 15.0 15.0 15.0 15.0 15.0 15.0 15.0 15.0 15.0 15.0 15.0 15.0 15.0
15.0 15.0 15.0 15.0 15.0 15.0 15.0 15.0 15.0 15.0 15.0 14.7 15.0 0.5 0.0 4.1 4.6 0.1 15.0 15.0 5.8 15.0 12.7 15.0 11.9 15.0 15.0 15.0 15.0 15.0 15.0 15.0 15.0 15.0 15.0 15.0 15.0 15.0 15.0 15.0 15.0 15.0 15.0 15.0
15.0 15.0 15.0 15.0 15.0 15.0 15.0 15.0 15.0 15.0 15.0 15.0 0.1 5.4 0.1 1.6 3.6 1.0 2.0 12.2 15.0 3.6 15.0 15.0 15.0 15.0 15.0 15.0 15.0 15.0 15.0 15.0 15.0 15.0 15.0 15.0 15.0 15.0 15.0 15.0 15.0 15.0 15.0 15.0
15.0 15.0 15.0 15.0 15.0 15.0 15.0 15.0 15.0 15.0 15.0 3.5 3.7 4.3 1.0 12.2 15.0 15.0 15.0 13.7 15.0 15.0 15.0 15.0 15.0 15.0 15.0 15.0 15.0 15.0 15.0 15.0 15.0 15.0 15.0 15.0 15.0 15.0 15.0 15.0 15.0 15.0 15.0 15.0
15.0 15.0 15.0 15.0 15.0 15.0 15.0 15.0 15.0 15.0 15.0 7.7 15.0 15.0 15.0 15.0 15.0 15.0 15.0 15.0 15.0 15.0 15.0 15.0 15.0 15.0 15.0 15.0 15.0 15.0 15.0 15.0 15.0 15.0 15.0 15.0 15.0 15.0 15.0 15.0 15.0 15.0 15.0 11.9
15.0 15.0 15.0 15.0 15.0 15.0 8.5 10.0 15.0 15.0 15.0 15.0 15.0 15.0 15.0 15.0 15.0 15.0 15.0 15.0 15.0 15.0 15.0 15.0 15.0 14.6 15.0 15.0 15.0 15.0 15.0 15.0 15.0 15.0 15.0 15.0 15.0 15.0 15.0 12.6 4.4 13.8 1.3 0.1
15.0 15.0 15.0 15.0 7.9 3.4 1.4 0.1 2.9 15.0 15.0 15.0 15.0 15.0 15.0 15.0 15.0 15.0 15.0 15.0 15.0 15.0 15.0 15.0 6.0 14.7 15.0 15.0 15.0 15.0 15.0 15.0 15.0 15.0 15.0 15.0 15.0 13.4 15.0 15.0 15.0 15.0 1.9 0.7
15.0 15.0 9.2 4.6 14.4 11.5 15.0 14.7 15.0 15.0 15.0 15.0 15.0 15.0 15.0 15.0 15.0 15.0 15.0 15.0 15.0 15.0 15.0 9.5 8.5 15.0 15.0 15.0 15.0 15.0 15.0 15.0 15.0 15.0 15.0 15.0 15.0 15.0 13.1 15.0 15.0 15.0 15.0 14.5
15.0 15.0 15.0 15.0 15.0 15.0 15.0 11.9 15.0 15.0 15.0 15.0 15.0 15.0 15.0 15.0 15.0 15.0 15.0 15.0 15.0 15.0 15.0 15.0 13.6 15.0 15.0 15.0 15.0 15.0 15.0 15.0 15.0 15.0 15.0 15.0 14.3 15.0 15.0 15.0 8.4 10.7 14.6 15.0
15.0 14.9 8.4 7.8 14.0 15.0 15.0 12.8 14.9 15.0 15.0 15.0 15.0 15.0 15.0 15.0 15.0 15.0 15.0 15.0 15.0 15.0 0.2 15.0 15.0 15.0 15.0 15.0 15.0 15.0 15.0 15.0 15.0 15.0 15.0 14.9 14.4 15.0 15.0 15.0 15.0 13.9 15.0 15.0

GFSNW_sfc_vis_201.txt.gz
Visibility
15.0 15.0 15.0 14.6 15.0 15.0 3.9 6.7 0.0 15.0 15.0 0.1 2.6 7.1 14.5 15.0 14.7 3.9 6.6 12.5 15.0 15.0 15.0 15.0 15.0 15.0 15.0 15.0 15.0 15.0 15.0 15.0 15.0 15.0 15.0 15.0 15.0 15.0 15.0 15.0 15.0 15.0 15.0 15.0
13.0 15.0 14.4 8.3 15.0 10.2 11.9 0.0 0.0 14.0 4.3 0.1 0.3 2.3 15.0 15.0 15.0 15.0 0.2 15.0 15.0 15.0 15.0 15.0 15.0 15.0 15.0 15.0 15.0 15.0 15.0 15.0 15.0 13.0 15.0 15.0 15.0 15.0 15.0 15.0 15.0 15.0 15.0 15.0
9.6 10.9 7.2 15.0 13.4 5.4 1.3 0.0 0.0 0.0 0.0 5.8 1.2 15.0 15.0 15.0 15.0 15.0 9.2 0.1 15.0 15.0 8.5 15.0 15.0 15.0 15.0 15.0 15.0 15.0 15.0 15.0 15.0 10.6 15.0 15.0 15.0 15.0 15.0 15.0 15.0 15.0 15.0 15.0
15.0 15.0 15.0 15.0 7.6 7.9 1.1 0.0 0.0 11.6 0.2 4.4 9.1 3.8 4.9 15.0 11.3 12.9 14.6 3.4 0.1 11.0 0.3 15.0 15.0 15.0 15.0 15.0 15.0 15.0 15.0 11.3 15.0 15.0 15.0 15.0 15.0 15.0 15.0 15.0 15.0 15.0 15.0 15.0
11.8 15.0 15.0 14.4 11.9 9.2 0.2 0.0 0.0 0.0 13.8 15.0 14.9 15.0 15.0 0.4 15.0 15.0 15.0 0.2 15.0 7.1 15.0 15.0 15.0 15.0 15.0 15.0 14.9 15.0 8.3 5.4 15.0 15.0 15.0 15.0 15.0 15.0 15.0 15.0 15.0 15.0 15.0 15.0
15.0 10.3 8.8 14.6 10.7 6.3 0.1 0.2 6.9 0.1 0.7 6.6 0.8 4.4 15.0 15.0 15.0 14.8 15.0 15.0 13.8 11.7 15.0 15.0 15.0 15.0 15.0 15.0 15.0 13.0 14.1 3.0 0.2 0.8 1.7 6.8 0.0 15.0 15.0 15.0 15.0 15.0 14.4 13.6
12.9 13.0 9.9 8.5 8.3 9.3 1.3 0.1 0.1 0.0 0.1 0.1 3.0 15.0 15.0 15.0 15.0 15.0 15.0 15.0 15.0 15.0 15.0 15.0 15.0 4.1 10.7 11.7 9.5 15.0 14.7 10.5 0.1 0.1 0.0 0.0 5.7 15.0 15.0 15.0 15.0 15.0 15.0 15.0
10.9 13.9 14.4 13.6 14.8 12.1 1.4 3.6 0.1 0.0 0.2 13.8 15.0 15.0 15.0 15.0 15.0 15.0 15.0 15.0 15.0 15.0 15.0 1.1 0.1 0.1 0.1 0.1 0.1 0.3 6.3 2.3 0.1 0.1 0.1 4.4 15.0 15.0 15.0 15.0 15.0 15.0 15.0 15.0
15.0 15.0 15.0 14.3 12.5 6.0 4.3 3.2 1.3 0.0 0.0 0.6 15.0 15.0 15.0 15.0 15.0 15.0 15.0 14.8 15.0 10.1 3.9 0.1 0.1 0.1 1.4 0.1 0.0 0.0 0.5 0.4 0.0 0.1 0.1 0.3 15.0 15.0 15.0 15.0 15.0 15.0 15.0 15.0
15.0 15.0 9.4 8.4 5.4 4.3 3.0 1.1 5.4 0.0 0.0 8.0 15.0 15.0 15.0 15.0 15.0 15.0 9.6 0.1 0.0 8.2 0.0 0.1 0.1 0.1 2.6 0.2 0.1 0.0 0.0 0.0 0.0 0.1 0.1 3.4 15.0 15.0 15.0 15.0 14.5 15.0 15.0 15.0
15.0 15.0 9.0 6.6 7.0 8.2 0.9 3.2 6.7 0.1 0.0 5.7 15.0 15.0 15.0 15.0 15.0 11.5 0.2 0.2 0.0 0.1 0.0 0.0 0.2 0.1 0.1 0.6 14.7 8.0 9.4 1.3 0.1 0.1 0.2 6.1 15.0 15.0 15.0 15.0 15.0 15.0 15.0 15.0
15.0 15.0 11.9 9.1 9.9 8.4 11.0 0.1 11.2 4.5 0.2 2.0 15.0 15.0 15.0 15.0 15.0 15.0 4.0 11.4 0.3 2.3 0.0 0.1 0.1 0.2 0.3 14.1 0.1 15.0 15.0 15.0 13.8 14.1 14.0 15.0 15.0 15.0 15.0 15.0 15.0 15.0 15.0 15.0
15.0 15.0 14.9 14.9 7.1 7.2 10.8 0.8 3.1 0.4 0.0 0.7 6.4 14.0 15.0 14.2 15.0 11.6 15.0 8.5 12.0 15.0 15.0 7.9 15.0 3.6 15.0 10.2 15.0 15.0 15.0 15.0 15.0 15.0 15.0 15.0 15.0 15.0 15.0 15.0 15.0 15.0 15.0 15.0
15.0 15.0 15.0 15.0 6.7 5.7 7.9 3.5 3.8 6.8 6.8 0.1 0.0 15.0 5.0 15.0 13.9 15.0 15.0 15.0 15.0 11.7 11.0 10.3 15.0 15.0 15.0 15.0 15.0 15.0 15.0 15.0 15.0 15.0 15.0 13.2 15.0 15.0 15.0 15.0 15.0 15.0 15.0 15.0
15.0 15.0 15.0 15.0 15.0 11.7 6.2 15.0 9.7 5.3 14.2 0.6 0.0 7.8 15.0 10.8 15.0 9.2 14.5 15.0 13.3 15.0 15.0 1.5 13.8 0.3 12.2 2.8 14.0 15.0 15.0 15.0 15.0 11.7 15.0 15.0 15.0 15.0 15.0 15.0 15.0 15.0 15.0 15.0
15.0 15.0 15.0 15.0 15.0 15.0 5.4 0.7 15.0 10.9 1.3 11.9 0.1 0.0 0.1 15.0 15.0 9.7 3.3 2.9 2.9 0.2 0.0 0.1 0.0 15.0 15.0 7.3 0.2 15.0 15.0 15.0 15.0 11.1 15.0 15.0 15.0 15.0 15.0 15.0 15.0 15.0 15.0 15.0
15.0 15.0 15.0 15.0 15.0 15.0 1.0 0.3 3.7 11.1 15.0 12.4 0.1 0.1 0.0 0.1 0.1 0.1 0.0 6.9 0.1 0.1 0.0 0.1 0.0 0.2 0.3 0.5 7.9 15.0 15.0 15.0 15.0 15.0 15.0 15.0 15.0 15.0 15.0 15.0 15.0 15.0 15.0 15.0
15.0 15.0 15.0 15.0 15.0 15.0 12.9 15.0 14.7 7.7 11.7 15.0 0.4 0.1 0.0 0.1 0.0 0.0 0.1 0.0 1.1 0.1 0.1 0.0 0.1 0.3 1.3 3.2 13.9 15.0 15.0 15.0 15.0 15.0 15.0 15.0 15.0 15.0 15.0 15.0 15.0 15.0 15.0 15.0
15.0 15.0 15.0 15.0 15.0 15.0 15.0 15.0 15.0 15.0 14.1 0.3 0.3 0.1 0.0 1.0 0.0 0.0 3.6 14.5 0.3 0.8 0.1 0.1 3.1 0.8 13.9 15.0 15.0 15.0 15.0 15.0 15.0 15.0 15.0 15.0 15.0 15.0 15.0 15.0 15.0 15.0 15.0 15.0
15.0 15.0 15.0 15.0 15.0 15.0 15.0 15.0 15.0 15.0 14.7 0.5 0.1 0.3 0.0 0.1 0.5 0.2 0.3 0.8 0.1 0.1 0.1 1.3 0.2 14.4 15.0 15.0 14.8 15.0 15.0 15.0 15.0 15.0 15.0 15.0 15.0 15.0 15.0 15.0 15.0 15.0 15.0 15.0
15.0 15.0 15.0 15.0 15.0 15.0 15.0 15.0 15.0 15.0 1.5 0.2 0.0 0.0 0.1 1.2 4.6 1.6 15.0 13.0 15.0 5.1 0.9 10.9 1.1 14.8 15.0 15.0 15.0 15.0 15.0 15.0 15.0 15.0 15.0 15.0 15.0 15.0 15.0 15.0 15.0 15.0 15.0 15.0
15.0 14.4 15.0 15.0 15.0 15.0 15.0 15.0 15.0 15.0 0.2 0.1 0.1 0.2 1.9 7.6 15.0 12.8 15.0 15.0 15.0 3.1 15.0 15.0 15.0 15.0 15.0 15.0 15.0 15.0 15.0 15.0 15.0 15.0 15.0 15.0 15.0 15.0 15.0 15.0 15.0 15.0 15.0 15.0
15.0 15.0 15.0 15.0 15.0 15.0 8.4 6.6 15.0 15.0 15.0 15.0 15.0 15.0 15.0 15.0 15.0 15.0 15.0 15.0 15.0 15.0 15.0 15.0 11.3 2.6 15.0 15.0 15.0 3.1 15.0 15.0 15.0 15.0 15.0 15.0 15.0 15.0 15.0 8.2 14.3 15.0 15.0 14.9
15.0 15.0 15.0 14.5 4.6 8.0 4.7 1.8 2.3 10.7 15.0 15.0 15.0 15.0 15.0 15.0 15.0 15.0 15.0 15.0 15.0 15.0 15.0 15.0 7.4 15.0 15.0 15.0 15.0 15.0 9.0 15.0 15.0 15.0 15.0 15.0 15.0 15.0 15.0 15.0 11.2 0.1 0.1 0.4
15.0 15.0 0.0 12.8 14.3 6.0 8.2 8.9 15.0 15.0 15.0 15.0 15.0 15.0 15.0 15.0 15.0 15.0 15.0 15.0 12.4 15.0 15.0 15.0 15.0 15.0 15.0 15.0 15.0 15.0 15.0 15.0 15.0 15.0 15.0 15.0 15.0 14.8 9.6 15.0 15.0 15.0 7.1 6.7
15.0 15.0 15.0 14.9 15.0 15.0 15.0 8.0 10.6 15.0 9.4 15.0 15.0 15.0 15.0 15.0 15.0 15.0 15.0 15.0 15.0 15.0 15.0 13.4 15.0 14.3 15.0 15.0 15.0 15.0 15.0 15.0 15.0 15.0 15.0 15.0 13.7 8.1 10.0 13.2 15.0 11.9 15.0 15.0
15.0 14.1 1.9 7.6 13.3 15.0 9.5 6.5 14.7 15.0 15.0 15.0 15.0 15.0 15.0 15.0 15.0 15.0 15.0 15.0 15.0 15.0 2.0 15.0 15.0 15.0 15.0 15.0 15.0 15.0 15.0 15.0 15.0 15.0 15.0 15.0 10.0 10.0 15.0 11.7 1.2 3.6 15.0 8.9